Iowa Falls, IA

9:53 AM CST on December 14, 2019 (GMT -0600)
Iowa Falls Municipal

Weather History for KIFA - October, 2019

Change the Weather History Date:

Monday, October 7, 2019

  Actual Average Record
Temperature  
Mean Temperature 56 °F -  
Max Temperature 70 °F 66 °F 87 °F (1980)
Min Temperature 41 °F 40 °F 19 °F (2012)
Degree Days  
Heating Degree Days 10    
Growing Degree Days 6 (Base 50)    
Moisture  
Dew Point 34 °F    
Average Humidity 51    
Maximum Humidity 79    
Minimum Humidity 18    
Precipitation  
Precipitation 0.00 in - - ()
Sea Level Pressure  
Sea Level Pressure 30.19 in    
Wind  
Wind Speed 6 mph ()    
Max Wind Speed 12 mph    
Max Gust Speed 18 mph    
Visibility 9.9 miles    
Events      
Averages and records for this station are not official NWS values.
T = Trace of Precipitation, MM = Missing Value Source: Averaged Metar Reports

Daily Weather History Graph

Daily Weather History Graph

Search for Another Location

Airport or City:

Astronomy

Oct. 07, 2019 Rise Set
Actual Time 7:16 AM CDT 6:44 PM CDT
Civil Twilight 6:48 AM CDT 7:12 PM CDT
Nautical Twilight 6:15 AM CDT 7:45 PM CDT
Astronomical Twilight 5:43 AM CDT 8:17 PM CDT
Moon 4:15 PM CDT (10/7) 1:01 AM CDT (10/7)
Length of Visible Light 12h 24m
Length of Day
11h 27m
Waxing Gibbous, 69% of the Moon is Illuminated
Oct 7
Waxing Gibbous
Oct 13
Full
Oct 21
Last Quarter
Oct 27
New
Nov 4
First Quarter

Hourly Weather History & Observations

Time (CDT) Temp. Windchill Dew Point Humidity Pressure Visibility Wind Dir Wind Speed Gust Speed Precip Events Conditions
12:15 AM 47.3 °F - 37.0 °F 68% 30.19 in 10.0 mi WSW 6.9 mph - N/A   Clear
12:35 AM 47.1 °F - 37.0 °F 68% 30.19 in 10.0 mi WSW 8.1 mph - N/A   Clear
12:55 AM 47.3 °F - 36.7 °F 67% 30.19 in 10.0 mi WSW 8.1 mph - N/A   Clear
1:15 AM 47.5 °F - 36.7 °F 66% 30.19 in 10.0 mi WSW 8.1 mph - N/A   Clear
1:35 AM 46.8 °F - 36.5 °F 67% 30.19 in 10.0 mi WSW 8.1 mph - N/A   Clear
1:55 AM 47.1 °F - 36.5 °F 67% 30.19 in 10.0 mi WSW 8.1 mph - N/A   Clear
2:15 AM 46.9 °F - 36.5 °F 67% 30.19 in 10.0 mi WSW 8.1 mph - N/A   Clear
2:35 AM 46.6 °F - 36.3 °F 67% 30.18 in 10.0 mi WSW 8.1 mph - N/A   Clear
2:55 AM 46.0 °F 41.4 °F 36.3 °F 69% 30.18 in 10.0 mi WSW 9.2 mph - N/A   Clear
3:15 AM 46.0 °F 41.4 °F 36.3 °F 69% 30.18 in 10.0 mi WSW 9.2 mph - N/A   Clear
3:35 AM 45.5 °F 41.3 °F 36.3 °F 70% 30.18 in 10.0 mi WSW 8.1 mph - N/A   Clear
3:55 AM 45.5 °F 41.3 °F 36.1 °F 70% 30.18 in 10.0 mi WSW 8.1 mph - N/A   Clear
4:15 AM 45.5 °F 40.8 °F 36.1 °F 70% 30.19 in 10.0 mi WSW 9.2 mph - N/A   Clear
4:35 AM 45.1 °F 40.8 °F 36.0 °F 70% 30.19 in 10.0 mi WSW 8.1 mph - N/A   Clear
4:55 AM 44.8 °F 41.6 °F 35.8 °F 71% 30.19 in 10.0 mi WSW 5.8 mph - N/A   Clear
5:15 AM 45.0 °F 40.6 °F 36.0 °F 71% 30.20 in 10.0 mi West 8.1 mph - N/A   Clear
5:35 AM 46.0 °F 41.4 °F 35.6 °F 67% 30.20 in 10.0 mi West 9.2 mph - N/A   Clear
5:55 AM 44.8 °F 41.0 °F 35.6 °F 70% 30.21 in 10.0 mi WSW 6.9 mph - N/A   Clear
6:15 AM 43.7 °F 40.3 °F 35.6 °F 73% 30.21 in 10.0 mi West 5.8 mph - N/A   Clear
6:35 AM 42.3 °F 39.4 °F 35.6 °F 77% 30.21 in 10.0 mi West 4.6 mph - N/A   Clear
6:55 AM 42.1 °F 40.2 °F 35.6 °F 78% 30.22 in 10.0 mi West 3.5 mph - N/A   Clear
7:15 AM 41.5 °F 39.6 °F 34.9 °F 77% 30.22 in 10.0 mi West 3.5 mph - N/A   Clear
7:35 AM 41.4 °F 39.4 °F 35.1 °F 78% 30.22 in 10.0 mi West 3.5 mph - N/A   Clear
7:55 AM 41.7 °F - 35.6 °F 79% 30.23 in 10.0 mi Calm Calm - N/A   Clear
8:35 AM 46.0 °F 43.1 °F 37.6 °F 72% 30.23 in 10.0 mi West 5.8 mph - N/A   Clear
9:35 AM 52.7 °F - 38.5 °F 58% 30.24 in 10.0 mi West 5.8 mph - N/A   Clear
9:55 AM 54.9 °F - 39.0 °F 55% 30.24 in 10.0 mi WNW 6.9 mph - N/A   Clear
10:15 AM 56.7 °F - 39.6 °F 53% 30.25 in 10.0 mi NW 3.5 mph - N/A   Clear
10:35 AM 58.6 °F - 38.3 °F 47% 30.25 in 10.0 mi NW 5.8 mph - N/A   Clear
10:55 AM 60.4 °F - 37.0 °F 42% 30.25 in 10.0 mi WNW 4.6 mph - N/A   Clear
11:15 AM 62.2 °F - 36.3 °F 38% 30.25 in 10.0 mi West 4.6 mph - N/A   Clear
11:35 AM 63.5 °F - 34.7 °F 34% 30.24 in 10.0 mi WNW 9.2 mph - N/A   Clear
11:55 AM 64.8 °F - 32.9 °F 30% 30.24 in 10.0 mi WNW 9.2 mph - N/A   Clear
12:15 PM 65.7 °F - 31.3 °F 28% 30.24 in 10.0 mi West 5.8 mph - N/A   Clear
12:35 PM 66.7 °F - 27.5 °F 23% 30.24 in 10.0 mi NW 9.2 mph - N/A   Clear
12:55 PM 67.1 °F - 28.8 °F 24% 30.23 in 10.0 mi WNW 9.2 mph - N/A   Clear
1:15 PM 68.2 °F - 27.7 °F 22% 30.23 in 10.0 mi NW 5.8 mph 16.1 mph N/A   Clear
1:35 PM 68.0 °F - 26.8 °F 21% 30.22 in 10.0 mi NNW 6.9 mph - N/A   Clear
1:55 PM 68.4 °F - 27.9 °F 22% 30.21 in 10.0 mi West 11.5 mph 18.4 mph N/A   Clear
2:15 PM 68.5 °F - 28.0 °F 22% 30.21 in 10.0 mi WNW 6.9 mph - N/A   Clear
2:35 PM 68.9 °F - 27.0 °F 21% 30.20 in 10.0 mi West 5.8 mph - N/A   Clear
2:55 PM 69.3 °F - 27.5 °F 21% 30.19 in 10.0 mi WSW 8.1 mph - N/A   Clear
3:15 PM 69.4 °F - 25.5 °F 19% 30.19 in 10.0 mi West 8.1 mph - N/A   Clear
3:35 PM 69.6 °F - 26.8 °F 20% 30.19 in 10.0 mi West 11.5 mph - N/A   Clear
3:55 PM 70.0 °F - 27.0 °F 20% 30.18 in 10.0 mi West 8.1 mph - N/A   Clear
4:15 PM 69.4 °F - 24.3 °F 18% 30.18 in 10.0 mi Calm Calm - N/A   Clear
4:35 PM 69.8 °F - 24.4 °F 18% 30.17 in 10.0 mi WSW 9.2 mph - N/A   Clear
4:55 PM 69.8 °F - 25.5 °F 19% 30.17 in 10.0 mi WSW 8.1 mph - N/A   Clear
5:15 PM 69.3 °F - 27.0 °F 21% 30.16 in 10.0 mi WSW 5.8 mph - N/A   Clear
5:35 PM 69.1 °F - 26.4 °F 20% 30.16 in 10.0 mi WSW 4.6 mph - N/A   Clear
5:55 PM 68.7 °F - 25.2 °F 19% 30.16 in 10.0 mi SSW 3.5 mph - N/A   Clear
6:15 PM 67.3 °F - 27.7 °F 23% 30.15 in 10.0 mi Calm Calm - N/A   Clear
6:35 PM 65.3 °F - 29.1 °F 26% 30.15 in 10.0 mi Calm Calm - N/A   Clear
6:55 PM 59.4 °F - 36.9 °F 43% 30.15 in 4.0 mi Calm Calm - N/A   Haze
7:15 PM 58.6 °F - 35.8 °F 42% 30.15 in 10.0 mi SSE 3.5 mph - N/A   Clear
7:35 PM 57.6 °F - 36.5 °F 45% 30.15 in 10.0 mi SSE 6.9 mph - N/A   Clear
7:55 PM 55.4 °F - 38.1 °F 52% 30.15 in 10.0 mi ESE 4.6 mph - N/A   Clear
8:15 PM 53.8 °F - 38.1 °F 55% 30.16 in 10.0 mi SE 4.6 mph - N/A   Clear
8:35 PM 51.8 °F - 38.7 °F 61% 30.16 in 10.0 mi SE 3.5 mph - N/A   Clear
8:55 PM 52.2 °F - 39.0 °F 61% 30.16 in 10.0 mi SE 6.9 mph - N/A   Clear
9:15 PM 51.1 °F - 38.8 °F 63% 30.16 in 10.0 mi SE 6.9 mph - N/A   Clear
9:35 PM 50.9 °F - 38.7 °F 63% 30.16 in 10.0 mi SSE 4.6 mph - N/A   Clear
9:55 PM 50.9 °F - 38.7 °F 63% 30.16 in 10.0 mi SSE 3.5 mph - N/A   Clear
10:15 PM 50.5 °F - 39.0 °F 65% 30.16 in 10.0 mi SSE 5.8 mph - N/A   Clear
10:35 PM 50.4 °F - 39.2 °F 66% 30.16 in 10.0 mi SSE 8.1 mph - N/A   Clear
10:55 PM 49.5 °F - 39.2 °F 68% 30.16 in 10.0 mi SSE 8.1 mph - N/A   Clear
11:15 PM 49.1 °F - 39.4 °F 69% 30.16 in 10.0 mi SSE 6.9 mph - N/A   Clear
11:35 PM 48.2 °F - 39.0 °F 71% 30.15 in 10.0 mi SSE 3.5 mph - N/A   Clear
11:55 PM 47.8 °F - 38.8 °F 71% 30.15 in 10.0 mi South 8.1 mph - N/A   Clear